Regional Weather Roundup
Issued by NWS

Home | Current Version | Previous Version | Graphics & Text | Print | Product List | Glossary On
Versions: 1 2 3 4 5 6 7 8 9 10 11 12 13 14 15 16 17 18 19 20 21 22 23 24 25 26 27 28 29 30 31 32 33 34 35 36 37 38 39 40 41 42 43 44 45 46 47 48 49 50
000
ASUS43 KLOT 220709
RWRIL

ILLINOIS REGIONAL WEATHER ROUNDUP
NATIONAL WEATHER SERVICE CHICAGO/ROMEOVILLE IL
200 AM CDT SUN OCT 22 2017

NOTE: "FAIR" INDICATES FEW OR NO CLOUDS BELOW 12,000 FEET WITH NO
SIGNIFICANT WEATHER AND/OR OBSTRUCTIONS TO VISIBILITY.

* THESE STATIONS ARE NOT UNDER NWS QUALITY CONTROL. THEY ALSO MAY NOT
  REPORT WEATHER SUCH AS PRECIPITATION OR FOG.

ILZ001-002-007-009-015-016-024-220800-
NORTHWEST ILLINOIS

CITY           SKY/WX    TMP DP  RH WIND       PRES   REMARKS
MOLINE         LGT RAIN  69  58  67 S3        29.86F
STERLING*      CLOUDY    70  59  68 S10G22      N/A
SAVANNA*       RAIN      67  59  73 SW6       29.89R
$$

ILZ003-004-008-010-011-017-018-220800-
NORTH CENTRAL ILLINOIS

CITY           SKY/WX    TMP DP  RH WIND       PRES   REMARKS
ROCKFORD       CLOUDY    67  56  67 S21G28    29.93F
FREEPORT*      CLOUDY    67  56  70 S14       29.91F
ROCHELLE*      MOCLDY    66  57  72 S14G21    29.94F
DE KALB*       CLOUDY    67  57  69 S20G28    29.96F
PERU*          CLOUDY    66  56  70 S17G25    29.93F
$$

ILZ005-006-012>014-019>023-220800-
NORTHEAST ILLINOIS

CITY           SKY/WX    TMP DP  RH WIND       PRES   REMARKS
CHICAGO-OHARE  MOCLDY    67  53  61 S17       29.98F
CHICAGO-MIDWAY MOCLDY    67  54  63 S16G23    30.00F
AURORA         CLOUDY    68  56  65 S14G22    29.97F
LANSING*       PTCLDY    63  54  73 S10       30.02F
JOLIET*        CLOUDY    68  56  66 S9        29.99F
WAUKEGAN       CLOUDY    68  55  63 S15       29.97F
DUPAGE AIRPORT CLOUDY    67  56  67 S16G26    29.97F
KANKAKEE*      CLOUDY    66  55  65 S12G18    30.03F
WHEELING       CLOUDY    68  55  63 S15       30.00F
MORRIS*        CLOUDY    66  55  66 S13       29.97F
ROMEOVILLE*    CLOUDY    66  55  67 S15G22    29.99F
NORTHERLY ISL    N/A     67  51  56 S10         N/A
$$

LMZ740>746-220800-
SOUTHERN LAKE MICHIGAN

STATION/POSITION SKY/WX   TEMP    WIND        PRES    VSBY  WAVE
                          AIR SEA DIR/SP/G                  HT/PER
                          (F)     (DEG/KT/KT) (MB)    (MI)  (FT/S)
SOUTHERN BUOY              64 61  160/ 17/ 21 1016.2          4/ 4
WILMETTE HARBOR            65 59  190/ 16/ 23   N/A           3/ 4
HARRISON CRIB              66     190/ 20/ 22   N/A
BURNHAM HARBOR             66     180/ 11/ 16   N/A
CALUMET HARBOR                    170/ 10/ 14 1015.7F
BURNS HARBOR               65     180/ 14/ 19 1017.3S
MICHIGAN CITY              65     150/ 14/ 18   N/A
MICHIGAN CITY 6N           64 58  180/ 16/ 21   N/A           2/ 2
ST. JOSEPH                 64 59  180/ 14/ 16 1017.8          2/ 3
$$

ILZ025>027-034>036-040-047-049-050-058-095>099-220800-
WEST-CENTRAL ILLINOIS

CITY           SKY/WX    TMP DP  RH WIND       PRES   REMARKS
QUINCY         LGT RAIN  68  62  81 S15G25    29.85F
MACOMB*        CLOUDY    69  59  72 S15       29.88F
JACKSONVILLE*  PTCLDY    68  60  74 SE17G23   29.90F
PITTSFIELD*    CLOUDY    70  62  74 SE10      29.89F
$$

ILZ028>032-037-038-041>044-048-051>054-059>061-220800-
CENTRAL ILLINOIS

CITY           SKY/WX    TMP DP  RH WIND       PRES   REMARKS
PONTIAC        PTCLDY    66  58  76 S16G24    29.98F
BLOOMINGTON    MOCLDY    66  57  72 S20G26    29.98F
DECATUR        MOCLDY    67  58  72 S15       30.00F
PEORIA         CLOUDY    70  60  70 S14       29.92F
LACON*         MOCLDY    68  58  70 S14G22    29.92F
LINCOLN*       CLOUDY    67  59  74 S13G21    29.95F
SPRINGFIELD    MOCLDY    70  61  73 S15G25    29.93F
TAYLORVILLE    CLEAR     66  59  76 S16       29.97F
$$

ILZ033-039-045-046-055>057-062-063-220800-
EAST-CENTRAL ILLINOIS

CITY           SKY/WX    TMP DP  RH WIND       PRES   REMARKS
CHAMPAIGN      PTCLDY    66  56  70 S15       30.03F
DANVILLE*      CLOUDY    66  54  65 S13G22    30.04F
RANTOUL*       PTCLDY    66  58  75 S12       30.02F
MATTOON        CLOUDY    65  58  78 S9        30.04F
PARIS*         CLOUDY    65  56  72 S12       30.08F
$$

ILZ079-100>102-220800-
SOUTHWEST ILLINOIS

CITY           SKY/WX    TMP DP  RH WIND       PRES   REMARKS
ALTON          CLOUDY    68  63  82 SE13G18   29.94F
BELLEVILLE     CLOUDY    71  60  67 SE14G20   29.99F
CAHOKIA*       CLOUDY    72  61  68 SE14G23   29.94F
SPARTA*        CLOUDY    68  61  77 S9        30.00F
$$

ILZ064>066-069>071-074>076-080>082-084>086-088>090-092>094-220800-
SOUTH-CENTRAL ILLINOIS

CITY           SKY/WX    TMP DP  RH WIND       PRES   REMARKS
CARBONDALE     MOCLDY    68  61  78 S12       30.01F
CAIRO*         CLOUDY    69  61  76 SE13G20   30.01F
EFFINGHAM*     CLOUDY    65  59  79 SE6       30.06F
MARION         CLOUDY    70  61  72 S12G17    30.03F
MT. VERNON     CLOUDY    66  60  81 SE3       30.04F
CENTRALIA*     MOCLDY    67  61  83 SE8       30.02F
SALEM*         MOCLDY    67  59  75 SE3       30.03F
METROPOLIS*    CLOUDY    70  61  72 SE9G18    30.04F
$$

ILZ067-068-072-073-078-083-087-091-220800-
SOUTHEAST ILLINOIS

CITY           SKY/WX    TMP DP  RH WIND       PRES   REMARKS
LAWRENCEVILLE  CLOUDY    64  56  75 S10       30.08F
FLORA*         CLOUDY    67  60  77 SE9       30.04F
FAIRFIELD*     CLOUDY    67  60  77 SE3       30.05S
HARRISBURG*    MOCLDY    68  61  78 S12       30.05F
ROBINSON*      CLOUDY    62  55  77 SE5       30.09F
CARMI*         MOCLDY    64  58  83 SE8       30.06S
$$

ABBREVIATIONS USED IN REMARKS
   TC - TEMPERATURE IN CELSIUS
  WCI - WIND CHILL INDEX
   HX - HEAT INDEX
  VSB - VISIBILITY
$$





USA.gov is the U.S. government's official web portal to all federal, state and local government web resources and services.